| time (UTC) | temp F | wind direction | speed MPH | gust MPH | rain 1hr in | rain 24hr in | rain mn in | humidity % | barometer mb |
| 20260831070156 | 65 | 91 | 0.0 | 0.0 | 0.00 | 0.00 | 0.00 | 95 | 1049.1 |
| 20260831065154 | 66 | 91 | 0.0 | 0.0 | 0.00 | 0.00 | 0.00 | 95 | 1049.2 |
| 20260831064151 | 65 | 88 | 0.0 | 0.0 | 0.00 | 0.00 | 0.00 | 95 | 1049.2 |
| 20260831063148 | 66 | 88 | 0.0 | 0.0 | 0.00 | 0.00 | 0.00 | 95 | 1049.2 |
| 20260831062148 | 66 | 88 | 0.0 | 0.0 | 0.00 | 0.00 | 0.00 | 95 | 1049.1 |
| 20260831061142 | 66 | 88 | 0.0 | 0.0 | 0.00 | 0.00 | 0.00 | 95 | 1049.0 |
| 20260831060137 | 66 | 85 | 0.0 | 0.0 | 0.00 | 0.00 | 0.00 | 95 | 1049.2 |
| 20260831055132 | 66 | 101 | 1.0 | 2.0 | 0.00 | 0.00 | 0.00 | 95 | 1049.3 |
| 20260831054131 | 66 | 92 | 0.0 | 0.0 | 0.00 | 0.00 | 0.00 | 95 | 1049.5 |
| 20260831053131 | 66 | 92 | 0.0 | 0.0 | 0.00 | 0.00 | 0.00 | 95 | 1049.5 |
| 20260831052129 | 66 | 92 | 0.0 | 0.0 | 0.00 | 0.00 | 0.00 | 95 | 1049.6 |
| 20260831051127 | 66 | 92 | 0.0 | 0.0 | 0.00 | 0.00 | 0.00 | 95 | 1049.6 |
| 20260831050126 | 66 | 92 | 0.0 | 0.0 | 0.00 | 0.00 | 0.00 | 95 | 1049.5 |
| 20260831045121 | 66 | 92 | 0.0 | 0.0 | 0.00 | 0.00 | 0.00 | 95 | 1049.5 |
| 20260831044117 | 66 | 92 | 0.0 | 0.0 | 0.00 | 0.00 | 0.00 | 95 | 1049.2 |
| 20260831043114 | 66 | 103 | 0.0 | 0.0 | 0.00 | 0.00 | 0.00 | 95 | 1049.4 |
| 20260831042114 | 66 | 103 | 0.0 | 0.0 | 0.00 | 0.00 | 0.00 | 95 | 1049.5 |
| 20260831041114 | 66 | 105 | 0.0 | 0.0 | 0.00 | 0.00 | 0.00 | 95 | 1049.4 |
| 20260831040109 | 66 | 92 | 0.0 | 0.0 | 0.00 | 0.01 | 0.01 | 95 | 1049.6 |
| 20260831035108 | 66 | 87 | 0.0 | 0.0 | 0.00 | 0.01 | 0.01 | 95 | 1049.5 |
| 20260831034109 | 66 | 87 | 0.0 | 0.0 | 0.00 | 0.01 | 0.01 | 95 | 1049.3 |
| 20260831033105 | 66 | 91 | 0.0 | 0.0 | 0.00 | 0.01 | 0.01 | 95 | 1049.4 |
| 20260831032100 | 67 | 90 | 0.0 | 0.0 | 0.00 | 0.01 | 0.01 | 95 | 1049.2 |
| 20260831031059 | 67 | 92 | 0.0 | 0.0 | 0.00 | 0.01 | 0.01 | 95 | 1049.3 |
| 20260831030058 | 67 | 111 | 2.0 | 2.0 | 0.00 | 0.01 | 0.01 | 95 | 1049.4 |
| 20260831025057 | 67 | 91 | 0.0 | 0.0 | 0.00 | 0.01 | 0.01 | 95 | 1049.7 |
| 20260831024052 | 67 | 91 | 0.0 | 0.0 | 0.00 | 0.01 | 0.01 | 95 | 1049.8 |
| 20260831023050 | 67 | 90 | 0.0 | 0.0 | 0.00 | 0.01 | 0.01 | 95 | 1049.9 |
| 20260831022046 | 67 | 110 | 1.0 | 2.0 | 0.00 | 0.01 | 0.01 | 95 | 1049.8 |
| 20260831021041 | 67 | 87 | 0.0 | 0.0 | 0.00 | 0.01 | 0.01 | 95 | 1049.7 |
| 20260831020037 | 67 | 92 | 0.0 | 0.0 | 0.00 | 0.01 | 0.01 | 95 | 1049.6 |
| 20260831015033 | 67 | 91 | 0.0 | 0.0 | 0.00 | 0.01 | 0.01 | 95 | 1049.8 |
| 20260831014029 | 67 | 91 | 0.0 | 0.0 | 0.00 | 0.01 | 0.01 | 95 | 1049.6 |
| 20260831013025 | 67 | 92 | 0.0 | 0.0 | 0.00 | 0.01 | 0.01 | 95 | 1049.6 |
| 20260831012020 | 67 | 92 | 0.0 | 0.0 | 0.00 | 0.01 | 0.01 | 95 | 1049.4 |
| 20260831011016 | 68 | 91 | 0.0 | 0.0 | 0.00 | 0.01 | 0.01 | 95 | 1049.7 |
| 20260831010013 | 68 | 91 | 0.0 | 0.0 | 0.00 | 0.01 | 0.01 | 95 | 1049.5 |
| 20260831005013 | 68 | 91 | 1.0 | 1.0 | 0.00 | 0.01 | 0.01 | 95 | 1049.2 |
| 20260831004010 | 68 | 103 | 1.0 | 1.0 | 0.00 | 0.01 | 0.01 | 95 | 1048.9 |
| 20260831003007 | 68 | 103 | 0.0 | 0.0 | 0.00 | 0.01 | 0.01 | 95 | 1048.8 |
| 20260831002007 | 68 | 103 | 0.0 | 0.0 | 0.00 | 0.01 | 0.01 | 95 | 1048.7 |
| 20260831001005 | 68 | 78 | 1.0 | 1.0 | 0.00 | 0.01 | 0.01 | 95 | 1048.5 |
| 20260831000005 | 68 | 89 | 0.0 | 0.0 | 0.00 | 0.01 | 0.01 | 95 | 1048.6 |
| 20260830235001 | 69 | 96 | 1.0 | 1.0 | 0.00 | 0.01 | 0.01 | 95 | 1048.6 |
| 20260830233957 | 69 | 100 | 0.0 | 0.0 | 0.07 | 0.01 | 0.01 | 95 | 1048.5 |
| 20260830232954 | 69 | 98 | 0.0 | 0.0 | 0.00 | 0.00 | 0.00 | 95 | 1048.4 |
| 20260830231952 | 69 | 90 | 0.0 | 0.0 | 0.00 | 0.00 | 0.00 | 95 | 1048.3 |
| 20260830230952 | 69 | 90 | 0.0 | 0.0 | 0.00 | 0.00 | 0.00 | 95 | 1048.3 |
| 20260830225952 | 70 | 91 | 0.0 | 0.0 | 0.00 | 0.00 | 0.00 | 95 | 1048.3 |
| 20260830224948 | 70 | 88 | 0.0 | 0.0 | 0.00 | 0.00 | 0.00 | 94 | 1048.2 |
| 20260830223943 | 70 | 88 | 0.0 | 0.0 | 0.00 | 0.00 | 0.00 | 94 | 1048.1 |
| 20260830222938 | 70 | 89 | 0.0 | 0.0 | 0.00 | 0.00 | 0.00 | 93 | 1048.1 |
| 20260830221936 | 71 | 89 | 0.0 | 0.0 | 0.00 | 0.00 | 0.00 | 93 | 1048.2 |
| 20260830220933 | 71 | 89 | 0.0 | 0.0 | 0.00 | 0.00 | 0.00 | 93 | 1048.1 |
| 20260830215930 | 71 | 89 | 0.0 | 0.0 | 0.00 | 0.00 | 0.00 | 93 | 1048.3 |
| 20260830214926 | 71 | 89 | 0.0 | 0.0 | 0.00 | 0.00 | 0.00 | 93 | 1048.4 |
| 20260830213922 | 71 | 89 | 0.0 | 0.0 | 0.00 | 0.00 | 0.00 | 92 | 1048.0 |
| 20260830212919 | 71 | 89 | 0.0 | 0.0 | 0.00 | 0.00 | 0.00 | 92 | 1048.1 |
| 20260830211919 | 72 | 89 | 0.0 | 0.0 | 0.00 | 0.00 | 0.00 | 92 | 1048.0 |
| 20260830210916 | 72 | 89 | 0.0 | 0.0 | 0.00 | 0.00 | 0.00 | 91 | 1047.9 |
| 20260830205912 | 73 | 89 | 0.0 | 0.0 | 0.00 | 0.00 | 0.00 | 91 | 1048.0 |
| 20260830204908 | 72 | 89 | 0.0 | 0.0 | 0.00 | 0.00 | 0.00 | 91 | 1048.0 |
| 20260830203907 | 72 | 89 | 0.0 | 0.0 | 0.00 | 0.00 | 0.00 | 91 | 1048.1 |
| 20260830202903 | 72 | 89 | 0.0 | 0.0 | 0.00 | 0.00 | 0.00 | 91 | 1048.0 |
| 20260830201900 | 72 | 89 | 0.0 | 0.0 | 0.00 | 0.00 | 0.00 | 90 | 1048.0 |
| 20260830200855 | 72 | 89 | 0.0 | 0.0 | 0.00 | 0.00 | 0.00 | 90 | 1047.9 |
| 20260830195850 | 72 | 89 | 0.0 | 0.0 | 0.00 | 0.00 | 0.00 | 90 | 1048.1 |
| 20260830194848 | 72 | 89 | 0.0 | 0.0 | 0.00 | 0.00 | 0.00 | 90 | 1048.1 |
| 20260830193843 | 73 | 88 | 0.0 | 0.0 | 0.00 | 0.00 | 0.00 | 88 | 1048.6 |
| 20260830192839 | 74 | 88 | 0.0 | 0.0 | 0.00 | 0.00 | 0.00 | 87 | 1048.4 |
| 20260830191834 | 75 | 75 | 1.0 | 2.0 | 0.00 | 0.00 | 0.00 | 84 | 1048.5 |
| 20260830190830 | 76 | 121 | 1.0 | 1.0 | 0.00 | 0.00 | 0.00 | 78 | 1048.5 |
| 20260830185828 | 76 | 75 | 1.0 | 1.0 | 0.00 | 0.00 | 0.00 | 77 | 1048.6 |
| 20260830184824 | 77 | 79 | 1.0 | 2.0 | 0.00 | 0.00 | 0.00 | 75 | 1048.9 |
| 20260830183825 | 77 | 106 | 2.0 | 2.0 | 0.00 | 0.00 | 0.00 | 74 | 1048.8 |
| 20260830182820 | 77 | 84 | 1.0 | 2.0 | 0.00 | 0.00 | 0.00 | 75 | 1048.6 |
| 20260830181818 | 76 | 14 | 5.0 | 6.0 | 0.00 | 0.00 | 0.00 | 75 | 1049.0 |
| 20260830180818 | 77 | 103 | 0.0 | 1.0 | 0.00 | 0.00 | 0.00 | 74 | 1048.9 |
| 20260830175818 | 76 | 18 | 3.0 | 5.0 | 0.00 | 0.00 | 0.00 | 76 | 1049.2 |
| 20260830174814 | 76 | 25 | 1.0 | 2.0 | 0.00 | 0.00 | 0.00 | 75 | 1049.3 |
| 20260830173809 | 77 | 262 | 4.0 | 5.0 | 0.00 | 0.00 | 0.00 | 75 | 1049.1 |
| 20260830172807 | 76 | 86 | 2.0 | 3.0 | 0.00 | 0.00 | 0.00 | 73 | 1049.3 |
| 20260830171805 | 76 | 279 | 3.0 | 5.0 | 0.00 | 0.00 | 0.00 | 75 | 1049.4 |
| 20260830170800 | 76 | 103 | 0.0 | 1.0 | 0.00 | 0.00 | 0.00 | 73 | 1049.4 |
| 20260830165758 | 75 | 18 | 3.0 | 3.0 | 0.00 | 0.00 | 0.00 | 76 | 1049.5 |
| 20260830164757 | 75 | 16 | 2.0 | 2.0 | 0.00 | 0.00 | 0.00 | 76 | 1049.5 |
| 20260830163755 | 75 | 101 | 0.0 | 1.0 | 0.00 | 0.00 | 0.00 | 76 | 1049.8 |
| 20260830162750 | 75 | 90 | 0.0 | 0.0 | 0.00 | 0.00 | 0.00 | 76 | 1049.6 |
| 20260830161748 | 75 | 269 | 4.0 | 5.0 | 0.00 | 0.00 | 0.00 | 76 | 1049.9 |
| 20260830160743 | 74 | 83 | 3.0 | 5.0 | 0.00 | 0.00 | 0.00 | 77 | 1050.0 |
| 20260830155739 | 75 | 324 | 4.0 | 5.0 | 0.00 | 0.00 | 0.00 | 75 | 1049.9 |
| 20260830154735 | 73 | 281 | 5.0 | 6.0 | 0.00 | 0.00 | 0.00 | 77 | 1050.0 |
| 20260830153734 | 74 | 343 | 3.0 | 3.0 | 0.00 | 0.00 | 0.00 | 76 | 1050.0 |
| 20260830152733 | 74 | 342 | 2.0 | 2.0 | 0.00 | 0.00 | 0.00 | 75 | 1050.2 |
| 20260830151728 | 73 | 88 | 2.0 | 3.0 | 0.00 | 0.00 | 0.00 | 76 | 1050.0 |
| 20260830150723 | 71 | 52 | 3.0 | 3.0 | 0.00 | 0.00 | 0.00 | 77 | 1050.2 |
| 20260830145723 | 71 | 101 | 4.0 | 5.0 | 0.00 | 0.00 | 0.00 | 78 | 1050.4 |
| 20260830144718 | 71 | 351 | 4.0 | 6.0 | 0.00 | 0.00 | 0.00 | 75 | 1050.3 |
| 20260830143716 | 70 | 92 | 0.0 | 0.0 | 0.00 | 0.00 | 0.00 | 80 | 1050.3 |
| 20260830142715 | 68 | 104 | 0.0 | 1.0 | 0.00 | 0.00 | 0.00 | 85 | 1050.9 |
| 20260830141711 | 67 | 104 | 0.0 | 1.0 | 0.00 | 0.00 | 0.00 | 85 | 1050.8 |
| 20260830140707 | 67 | 104 | 0.0 | 0.0 | 0.00 | 0.00 | 0.00 | 84 | 1050.9 |
| 20260830135703 | 66 | 104 | 0.0 | 0.0 | 0.00 | 0.00 | 0.00 | 85 | 1050.8 |
| 20260830134700 | 65 | 104 | 0.0 | 0.0 | 0.00 | 0.00 | 0.00 | 88 | 1051.0 |
| 20260830133656 | 65 | 92 | 1.0 | 1.0 | 0.00 | 0.00 | 0.00 | 86 | 1050.9 |
| 20260830132653 | 63 | 95 | 0.0 | 0.0 | 0.00 | 0.00 | 0.00 | 88 | 1050.8 |
| 20260830131653 | 62 | 89 | 0.0 | 0.0 | 0.00 | 0.00 | 0.00 | 89 | 1051.2 |
| 20260830130648 | 63 | 90 | 0.0 | 0.0 | 0.00 | 0.00 | 0.00 | 88 | 1051.2 |
| 20260830125648 | 62 | 90 | 0.0 | 0.0 | 0.00 | 0.00 | 0.00 | 87 | 1051.1 |
| 20260830124647 | 61 | 91 | 0.0 | 0.0 | 0.00 | 0.00 | 0.00 | 91 | 1051.2 |
| 20260830123645 | 60 | 92 | 0.0 | 0.0 | 0.00 | 0.00 | 0.00 | 92 | 1051.2 |
| 20260830122643 | 60 | 93 | 0.0 | 0.0 | 0.00 | 0.00 | 0.00 | 91 | 1051.3 |
| 20260830121641 | 58 | 92 | 0.0 | 0.0 | 0.00 | 0.00 | 0.00 | 95 | 1051.3 |
| 20260830120641 | 57 | 92 | 0.0 | 0.0 | 0.00 | 0.00 | 0.00 | 95 | 1051.5 |
| 20260830115639 | 56 | 92 | 0.0 | 0.0 | 0.00 | 0.00 | 0.00 | 95 | 1051.6 |
| 20260830114637 | 56 | 92 | 0.0 | 0.0 | 0.00 | 0.00 | 0.00 | 95 | 1051.7 |
| 20260830113632 | 56 | 92 | 0.0 | 0.0 | 0.00 | 0.00 | 0.00 | 95 | 1051.5 |
| 20260830112629 | 55 | 103 | 0.0 | 0.0 | 0.00 | 0.00 | 0.00 | 95 | 1051.6 |